UAL411 KEWR-KIAD

Flight info

Callsign UAL411
Flight time 0h 46m
Altitude 30000
Route PARKE HYPER9
Aircraft A20N/M-SDE2E3FGHIRWXY/LB1

Departure

Time 2026-05-06 23:19
Airport Newark Liberty International Airport (KEWR)

Arrival

Time 2026-05-07 00:06
Airport Washington Dulles International Airport (KIAD)
Time Latitude Longitude Altitude Speed Heading
2026-05-06 22:59 40.69560 -74.17237 22 ft 0 kts 315°
2026-05-06 23:10 40.69556 -74.17232 19 ft 1 kts 315°
2026-05-06 23:10 40.69552 -74.17227 20 ft 1 kts 315°
2026-05-06 23:10 40.69546 -74.17220 20 ft 1 kts 315°
2026-05-06 23:11 40.69541 -74.17212 19 ft 1 kts 315°
2026-05-06 23:11 40.69535 -74.17205 19 ft 1 kts 315°
2026-05-06 23:11 40.69530 -74.17198 19 ft 1 kts 321°
2026-05-06 23:11 40.69523 -74.17191 20 ft 1 kts 346°
2026-05-06 23:12 40.69515 -74.17189 19 ft 1 kts 15°
2026-05-06 23:12 40.69509 -74.17192 20 ft 0 kts 45°
2026-05-06 23:15 40.69510 -74.17191 20 ft 0 kts 46°
2026-05-06 23:15 40.69512 -74.17180 19 ft 6 kts 70°
2026-05-06 23:15 40.69523 -74.17069 19 ft 17 kts 78°
2026-05-06 23:16 40.69590 -74.16922 18 ft 21 kts 20°
2026-05-06 23:16 40.69636 -74.16893 18 ft 0 kts 23°
2026-05-06 23:16 40.69640 -74.16889 19 ft 2 kts 33°
2026-05-06 23:16 40.69654 -74.16866 18 ft 5 kts 63°
2026-05-06 23:17 40.69671 -74.16812 19 ft 9 kts 72°
2026-05-06 23:17 40.69723 -74.16716 18 ft 17 kts 30°
2026-05-06 23:17 40.69846 -74.16639 15 ft 22 kts 27°
2026-05-06 23:17 40.69988 -74.16547 15 ft 24 kts 22°
2026-05-06 23:18 40.70062 -74.16478 16 ft 10 kts 74°
2026-05-06 23:18 40.70052 -74.16380 15 ft 9 kts 132°
2026-05-06 23:18 40.70003 -74.16385 14 ft 9 kts 201°
2026-05-06 23:18 40.69870 -74.16469 15 ft 50 kts 207°
2026-05-06 23:19 40.69366 -74.16792 23 ft 109 kts 206°
2026-05-06 23:19 40.68544 -74.17321 27 ft 151 kts 207°
2026-05-06 23:19 40.67532 -74.17942 390 ft 166 kts 204°
2026-05-06 23:19 40.66426 -74.18714 881 ft 190 kts 217°
2026-05-06 23:20 40.65472 -74.19946 1841 ft 201 kts 241°
2026-05-06 23:20 40.65237 -74.21793 2800 ft 215 kts 282°
2026-05-06 23:20 40.66061 -74.23470 3879 ft 235 kts 317°
2026-05-06 23:20 40.67657 -74.24433 4501 ft 271 kts 334°
2026-05-06 23:21 40.69263 -74.25703 4789 ft 263 kts 310°
2026-05-06 23:21 40.70169 -74.27620 4937 ft 242 kts 283°
2026-05-06 23:21 40.70220 -74.29821 5084 ft 244 kts 259°
2026-05-06 23:21 40.69852 -74.32015 5634 ft 247 kts 257°
2026-05-06 23:22 40.69477 -74.34221 6705 ft 242 kts 258°
2026-05-06 23:22 40.69113 -74.36365 7823 ft 240 kts 257°
2026-05-06 23:22 40.68772 -74.38491 8834 ft 240 kts 260°
2026-05-06 23:22 40.68681 -74.40692 9850 ft 241 kts 266°
2026-05-06 23:23 40.68677 -74.42938 10547 ft 254 kts 267°
2026-05-06 23:23 40.68682 -74.45364 10877 ft 277 kts 267°
2026-05-06 23:23 40.68684 -74.48005 11254 ft 295 kts 267°
2026-05-06 23:23 40.68682 -74.50737 12010 ft 301 kts 267°
2026-05-06 23:24 40.68677 -74.53505 12878 ft 304 kts 267°
2026-05-06 23:24 40.68668 -74.56312 13683 ft 308 kts 266°
2026-05-06 23:24 40.68656 -74.59144 14444 ft 311 kts 267°
2026-05-06 23:24 40.68642 -74.61999 15202 ft 313 kts 267°
2026-05-06 23:25 40.68627 -74.64880 15948 ft 316 kts 267°
2026-05-06 23:25 40.68611 -74.67797 16685 ft 319 kts 268°
2026-05-06 23:25 40.68594 -74.70738 17407 ft 323 kts 268°
2026-05-06 23:25 40.68575 -74.73711 18128 ft 326 kts 268°
2026-05-06 23:26 40.68556 -74.76698 18861 ft 324 kts 268°
2026-05-06 23:26 40.68537 -74.79657 19516 ft 324 kts 268°
2026-05-06 23:26 40.68517 -74.82629 19826 ft 323 kts 268°
2026-05-06 23:26 40.68497 -74.85593 19962 ft 323 kts 268°
2026-05-06 23:27 40.68475 -74.88554 19872 ft 324 kts 268°
2026-05-06 23:27 40.68453 -74.91515 19824 ft 322 kts 268°
2026-05-06 23:27 40.68430 -74.94467 19821 ft 322 kts 268°
2026-05-06 23:27 40.68406 -74.97425 19822 ft 323 kts 268°
2026-05-06 23:28 40.68382 -75.00377 19821 ft 323 kts 268°
2026-05-06 23:28 40.68357 -75.03345 19823 ft 323 kts 268°
2026-05-06 23:28 40.68331 -75.06306 19838 ft 322 kts 268°
2026-05-06 23:28 40.68207 -75.09224 19831 ft 316 kts 264°
2026-05-06 23:29 40.67974 -75.12101 19830 ft 317 kts 264°
2026-05-06 23:29 40.67749 -75.15000 19831 ft 318 kts 264°
2026-05-06 23:29 40.67527 -75.17900 19837 ft 318 kts 264°
2026-05-06 23:29 40.67305 -75.20803 19836 ft 318 kts 264°
2026-05-06 23:30 40.67082 -75.23696 19836 ft 318 kts 264°
2026-05-06 23:30 40.66857 -75.26594 19839 ft 317 kts 264°
2026-05-06 23:30 40.66634 -75.29450 19838 ft 318 kts 264°
2026-05-06 23:30 40.66407 -75.32347 19839 ft 318 kts 264°
2026-05-06 23:31 40.66098 -75.35227 19845 ft 318 kts 259°
2026-05-06 23:31 40.65524 -75.38049 19840 ft 320 kts 253°
2026-05-06 23:31 40.64690 -75.40769 19841 ft 321 kts 248°
2026-05-06 23:31 40.63617 -75.43369 19865 ft 323 kts 244°
2026-05-06 23:32 40.62507 -75.45919 19845 ft 321 kts 245°
2026-05-06 23:32 40.61404 -75.48480 19853 ft 322 kts 245°
2026-05-06 23:32 40.60300 -75.51046 19850 ft 322 kts 245°
2026-05-06 23:32 40.59198 -75.53606 19852 ft 322 kts 245°
2026-05-06 23:33 40.58092 -75.56170 19851 ft 322 kts 245°
2026-05-06 23:33 40.56987 -75.58729 19847 ft 321 kts 245°
2026-05-06 23:33 40.55882 -75.61284 19847 ft 321 kts 245°
2026-05-06 23:33 40.54776 -75.63838 19848 ft 322 kts 245°
2026-05-06 23:34 40.53669 -75.66393 19847 ft 322 kts 245°
2026-05-06 23:34 40.52562 -75.68947 19850 ft 322 kts 245°
2026-05-06 23:34 40.51451 -75.71506 19844 ft 322 kts 245°
2026-05-06 23:34 40.50344 -75.74054 19847 ft 322 kts 245°
2026-05-06 23:35 40.49233 -75.76610 19845 ft 322 kts 245°
2026-05-06 23:35 40.48124 -75.79158 19863 ft 321 kts 245°
2026-05-06 23:35 40.47016 -75.81700 19842 ft 319 kts 245°
2026-05-06 23:35 40.45910 -75.84238 19841 ft 322 kts 245°
2026-05-06 23:36 40.44766 -75.86771 19847 ft 324 kts 242°
2026-05-06 23:36 40.43431 -75.89171 19845 ft 327 kts 237°
2026-05-06 23:36 40.41901 -75.91390 19845 ft 331 kts 232°
2026-05-06 23:36 40.40249 -75.93466 19843 ft 332 kts 231°
2026-05-06 23:37 40.38588 -75.95561 19768 ft 330 kts 231°
2026-05-06 23:37 40.36944 -75.97645 19423 ft 329 kts 231°
2026-05-06 23:37 40.35292 -75.99743 18875 ft 330 kts 231°
2026-05-06 23:37 40.33644 -76.01835 18263 ft 331 kts 231°
2026-05-06 23:38 40.31992 -76.03931 17626 ft 330 kts 230°
2026-05-06 23:38 40.30348 -76.06009 17069 ft 327 kts 230°
2026-05-06 23:38 40.28715 -76.08073 16464 ft 324 kts 230°
2026-05-06 23:38 40.27096 -76.10119 15888 ft 323 kts 230°
2026-05-06 23:39 40.25486 -76.12153 15352 ft 320 kts 230°
2026-05-06 23:39 40.23890 -76.14168 14835 ft 318 kts 230°
2026-05-06 23:39 40.22302 -76.16169 14357 ft 315 kts 230°
2026-05-06 23:39 40.20741 -76.18134 14119 ft 311 kts 230°
2026-05-06 23:40 40.19169 -76.20118 14035 ft 316 kts 230°
2026-05-06 23:40 40.17588 -76.22110 14028 ft 315 kts 230°
2026-05-06 23:40 40.16008 -76.24095 14029 ft 315 kts 230°
2026-05-06 23:40 40.14428 -76.26081 14029 ft 315 kts 230°
2026-05-06 23:41 40.12866 -76.28090 14015 ft 313 kts 232°
2026-05-06 23:41 40.11497 -76.30292 14028 ft 310 kts 239°
2026-05-06 23:41 40.10358 -76.32659 14028 ft 308 kts 243°
2026-05-06 23:41 40.09261 -76.35073 14010 ft 310 kts 243°
2026-05-06 23:42 40.08149 -76.37496 14022 ft 311 kts 242°
2026-05-06 23:42 40.07032 -76.39916 14033 ft 311 kts 242°
2026-05-06 23:42 40.05935 -76.42306 14028 ft 311 kts 243°
2026-05-06 23:42 40.04829 -76.44730 14031 ft 310 kts 243°
2026-05-06 23:43 40.03702 -76.47172 14032 ft 311 kts 242°
2026-05-06 23:43 40.02597 -76.49552 14030 ft 310 kts 242°
2026-05-06 23:43 40.01473 -76.51970 13985 ft 304 kts 242°
2026-05-06 23:43 40.00408 -76.54255 13904 ft 292 kts 242°
2026-05-06 23:44 39.99376 -76.56467 13814 ft 279 kts 243°
2026-05-06 23:44 39.98390 -76.58584 13717 ft 266 kts 243°
2026-05-06 23:44 39.97449 -76.60606 13490 ft 258 kts 243°
2026-05-06 23:44 39.96528 -76.62590 13224 ft 255 kts 243°
2026-05-06 23:45 39.95604 -76.64584 12963 ft 258 kts 242°
2026-05-06 23:45 39.94679 -76.66574 12717 ft 255 kts 242°
2026-05-06 23:45 39.93765 -76.68536 12465 ft 253 kts 242°
2026-05-06 23:45 39.92851 -76.70499 12208 ft 253 kts 242°
2026-05-06 23:46 39.91943 -76.72444 11952 ft 250 kts 242°
2026-05-06 23:46 39.91038 -76.74382 11708 ft 250 kts 242°
2026-05-06 23:46 39.90139 -76.76303 11460 ft 247 kts 242°
2026-05-06 23:46 39.89243 -76.78219 11214 ft 248 kts 242°
2026-05-06 23:47 39.88351 -76.80127 10972 ft 246 kts 241°
2026-05-06 23:47 39.87464 -76.82023 10736 ft 245 kts 241°
2026-05-06 23:47 39.86575 -76.83922 10489 ft 245 kts 241°
2026-05-06 23:47 39.85690 -76.85810 10251 ft 243 kts 241°
2026-05-06 23:48 39.84813 -76.87679 10078 ft 241 kts 241°
2026-05-06 23:48 39.83938 -76.89543 10018 ft 242 kts 241°
2026-05-06 23:48 39.83073 -76.91386 10019 ft 242 kts 241°
2026-05-06 23:48 39.82182 -76.93285 10019 ft 243 kts 241°
2026-05-06 23:49 39.81303 -76.95157 10022 ft 242 kts 241°
2026-05-06 23:49 39.80426 -76.97025 10019 ft 243 kts 240°
2026-05-06 23:49 39.79545 -76.98899 10019 ft 243 kts 240°
2026-05-06 23:49 39.78665 -77.00769 10019 ft 243 kts 241°
2026-05-06 23:50 39.77782 -77.02643 10021 ft 241 kts 241°
2026-05-06 23:50 39.76334 -77.05716 10021 ft 243 kts 241°
2026-05-06 23:50 39.75449 -77.07593 10022 ft 242 kts 241°
2026-05-06 23:51 39.74566 -77.09466 10019 ft 242 kts 240°
2026-05-06 23:51 39.73689 -77.11322 10023 ft 243 kts 240°
2026-05-06 23:51 39.72803 -77.13198 10024 ft 243 kts 240°
2026-05-06 23:51 39.71921 -77.15064 10024 ft 243 kts 240°
2026-05-06 23:52 39.71032 -77.16941 9993 ft 244 kts 240°
2026-05-06 23:52 39.70146 -77.18813 9863 ft 243 kts 240°
2026-05-06 23:52 39.69268 -77.20666 9747 ft 241 kts 240°
2026-05-06 23:52 39.68304 -77.22459 9610 ft 243 kts 234°
2026-05-06 23:53 39.67137 -77.24048 9556 ft 244 kts 227°
2026-05-06 23:53 39.65878 -77.25530 9494 ft 244 kts 227°
2026-05-06 23:53 39.64624 -77.27029 9439 ft 244 kts 227°
2026-05-06 23:53 39.63380 -77.28526 9383 ft 244 kts 227°
2026-05-06 23:54 39.62135 -77.30024 9322 ft 244 kts 227°
2026-05-06 23:54 39.60893 -77.31520 9246 ft 244 kts 227°
2026-05-06 23:54 39.59586 -77.32883 9158 ft 249 kts 213°
2026-05-06 23:54 39.57885 -77.33542 9037 ft 260 kts 200°
2026-05-06 23:55 39.56100 -77.33965 8908 ft 261 kts 198°
2026-05-06 23:55 39.54314 -77.34351 8776 ft 258 kts 198°
2026-05-06 23:55 39.52576 -77.34727 8713 ft 248 kts 199°
2026-05-06 23:55 39.50920 -77.35095 8610 ft 236 kts 199°
2026-05-06 23:56 39.49353 -77.35452 8515 ft 221 kts 200°
2026-05-06 23:56 39.47892 -77.35793 8405 ft 207 kts 200°
2026-05-06 23:56 39.46520 -77.36118 8315 ft 194 kts 201°
2026-05-06 23:56 39.45234 -77.36424 8212 ft 182 kts 202°
2026-05-06 23:57 39.44005 -77.36722 8008 ft 177 kts 202°
2026-05-06 23:57 39.42806 -77.37019 7884 ft 178 kts 202°
2026-05-06 23:57 39.41593 -77.37324 7759 ft 179 kts 202°
2026-05-06 23:57 39.40371 -77.37622 7626 ft 179 kts 202°
2026-05-06 23:58 39.39138 -77.37919 7313 ft 181 kts 201°
2026-05-06 23:58 39.37882 -77.38221 6960 ft 185 kts 201°
2026-05-06 23:58 39.36604 -77.38530 6591 ft 189 kts 200°
2026-05-06 23:58 39.35303 -77.38843 6227 ft 192 kts 200°
2026-05-06 23:59 39.33980 -77.39159 5827 ft 195 kts 199°
2026-05-06 23:59 39.32627 -77.39488 5450 ft 198 kts 198°
2026-05-06 23:59 39.31273 -77.39813 5084 ft 201 kts 197°
2026-05-06 23:59 39.29882 -77.40142 4716 ft 204 kts 197°
2026-05-07 00:00 39.28474 -77.40474 4333 ft 208 kts 197°
2026-05-07 00:00 39.27054 -77.40810 4083 ft 205 kts 196°
2026-05-07 00:00 39.25670 -77.41128 3920 ft 199 kts 197°
2026-05-07 00:00 39.24291 -77.41448 3506 ft 205 kts 197°
2026-05-07 00:01 39.22873 -77.41791 3032 ft 215 kts 196°
2026-05-07 00:01 39.21349 -77.42164 2523 ft 225 kts 195°
2026-05-07 00:01 39.19793 -77.42537 2143 ft 226 kts 194°
2026-05-07 00:01 39.18315 -77.42879 2026 ft 203 kts 193°
2026-05-07 00:02 39.17030 -77.43166 2025 ft 177 kts 192°
2026-05-07 00:02 39.15695 -77.43455 2057 ft 208 kts 193°
2026-05-07 00:02 39.14224 -77.43741 2654 ft 227 kts 186°
2026-05-07 00:02 39.12560 -77.43552 2938 ft 241 kts 172°
2026-05-07 00:03 39.10942 -77.43365 2891 ft 225 kts 185°
2026-05-07 00:03 39.09430 -77.43385 2676 ft 220 kts 184°
2026-05-07 00:03 39.07891 -77.43398 2571 ft 215 kts 184°
2026-05-07 00:03 39.06506 -77.43418 2523 ft 186 kts 185°
2026-05-07 00:04 39.05189 -77.43448 2208 ft 189 kts 184°
2026-05-07 00:04 39.03920 -77.43463 1925 ft 176 kts 185°
2026-05-07 00:04 39.02735 -77.43483 1697 ft 166 kts 185°
2026-05-07 00:04 39.01619 -77.43501 1483 ft 155 kts 184°
2026-05-07 00:05 39.00544 -77.43517 1286 ft 158 kts 184°
2026-05-07 00:05 38.99452 -77.43536 1085 ft 155 kts 184°
2026-05-07 00:05 38.98421 -77.43554 879 ft 145 kts 183°
2026-05-07 00:05 38.97412 -77.43578 695 ft 144 kts 183°
2026-05-07 00:06 38.96420 -77.43576 502 ft 139 kts 181°
2026-05-07 00:06 38.95429 -77.43581 316 ft 145 kts 181°
2026-05-07 00:06 38.94671 -77.43604 294 ft 9 kts 114°